Location: Fernhill
(41.0167°S, 175.6333°E)
Time: 00:14:36
(UTC+00:00)

Cosmos 2142 Rocket - Pass Details

Date: 08 November 2025
Orbit: 952 x 1003 km, 83.0° (Epoch: 04 December)

Event Time Altitude Azimuth Distance (km) Brightness Sun altitude
Rises 08:21:27 0° 188° (S) 3,667 8.2 -13.1°
Reaches altitude 10° 08:23:58 10° 188° (S) 2,713 7.5 -13.5°
Maximum altitude 08:30:12 89° 277° (W) 970 4.5 -14.4°
Drops below altitude 10° 08:36:22 10° 5° (N) 2,691 6.4 -15.3°
Enters shadow 08:36:29 - 5° (N) 2,739 6.4 -15.3°
